{"data":{"norad_id":62420,"intl_designator":"2024-249M","name":"STARLINK-11434 [DTC]","alt_names":[],"object_type":"PAYLOAD","status":"ACTIVE","operator":null,"country":"US","launch_date":"2024-12-23","launch_site_code":"AFETR","launch_vehicle":null,"mission":null,"orbit_class":"UNKNOWN","rcs_meters":null,"size_class":null,"mass_kg":null,"dimensions":null,"purposes":["comms"],"wikipedia_slug":null,"has_3d_model":false,"image_url":null,"decayed_at":null,"tle_current":{"epoch":"2026-09-21T21:07:03.631296Z","epoch_age_seconds":55353,"freshness":"FRESH","line1":"1 62420U 24249M   26264.87990314  .00083838  00000+0  64812-3 0  9999","line2":"2 62420  43.0007  65.3000 0001928 259.1970 100.8681 15.70919111100333","mean_motion":15.70919111,"eccentricity":0.0001928,"inclination_deg":43.0007,"raan_deg":65.3,"arg_perigee_deg":259.197,"mean_anomaly_deg":100.8681,"bstar":0.00064812,"rev_number":10033,"period_min":91.666081971804,"perigee_km":354.97056354542,"apogee_km":357.56735048245,"semimajor_km":6734.4059570139,"source":"CELESTRAK","updated_at":"2026-09-22T09:00:49.577565Z"}}}